• In Uzbekistan
  • List of Countries
  • For 7 days
  • Water Temperature
  • Satellite Maps
  • Weather Map
  • Weather Widgets
  • user-avatar
    Login

    Hourly Weather Conchas

    Today, 17 October, Tuesday

    Time Temperature Precipitation Wind Pressure Humidity
    00:00 +20°C° 0 mm 4 mps 719 mmHg 79%
    01:00 +20°C° 0 mm 4 mps 719 mmHg 80%
    02:00 +20°C° 0 mm 4 mps 719 mmHg 81%
    03:00 +19°C° 0 mm 4 mps 719 mmHg 83%
    04:00 +19°C° 0 mm 4 mps 719 mmHg 83%
    05:00 +19°C° 0 mm 3 mps 719 mmHg 84%
    06:00 +19°C° 0 mm 3 mps 720 mmHg 84%
    07:00 +21°C° 0 mm 3 mps 720 mmHg 76%
    08:00 +25°C° 0 mm 4 mps 721 mmHg 68%
    09:00 +27°C° 0 mm 4 mps 721 mmHg 59%
    10:00 +29°C° 0 mm 4 mps 721 mmHg 55%
    11:00 +30°C° 0 mm 3 mps 720 mmHg 51%
    12:00 +33°C° 0 mm 3 mps 720 mmHg 46%
    13:00 +33°C° 0 mm 3 mps 720 mmHg 45%
    14:00 +33°C° 0 mm 3 mps 719 mmHg 45%
    15:00 +34°C° 0 mm 2 mps 719 mmHg 44%
    16:00 +32°C° 0 mm 2 mps 718 mmHg 47%
    17:00 +31°C° 0 mm 2 mps 718 mmHg 51%
    18:00 +30°C° 0 mm 2 mps 718 mmHg 54%
    19:00 +28°C° 0 mm 3 mps 718 mmHg 59%
    20:00 +27°C° 0 mm 3 mps 719 mmHg 64%
    21:00 +25°C° 0 mm 4 mps 719 mmHg 68%
    22:00 +25°C° 0 mm 3 mps 719 mmHg 72%
    23:00 +24°C° 0 mm 3 mps 719 mmHg 75%

    Tomorrow, 18 October, Wednesday

    Time Temperature Precipitation Wind Pressure Humidity
    00:00 +23°C° 0 mm 2 mps 719 mmHg 78%
    01:00 +23°C° 0 mm 2 mps 718 mmHg 78%
    02:00 +23°C° 0 mm 2 mps 718 mmHg 78%
    03:00 +21°C° 0 mm 2 mps 718 mmHg 78%
    04:00 +21°C° 0 mm 2 mps 718 mmHg 78%
    05:00 +21°C° 0 mm 2 mps 718 mmHg 77%
    06:00 +21°C° 0 mm 2 mps 718 mmHg 77%
    07:00 +24°C° 0 mm 3 mps 719 mmHg 70%
    08:00 +26°C° 0 mm 4 mps 719 mmHg 62%
    09:00 +28°C° 0 mm 4 mps 720 mmHg 55%
    10:00 +30°C° 0 mm 4 mps 719 mmHg 49%
    11:00 +33°C° 0 mm 3 mps 719 mmHg 43%
    12:00 +35°C° 0 mm 3 mps 719 mmHg 37%
    13:00 +35°C° 0 mm 3 mps 718 mmHg 34%
    14:00 +36°C° 0 mm 2 mps 717 mmHg 32%
    15:00 +36°C° 0 mm 2 mps 717 mmHg 29%
    16:00 +35°C° 0 mm 2 mps 716 mmHg 33%
    17:00 +32°C° 0 mm 2 mps 716 mmHg 37%
    18:00 +31°C° 0 mm 1 mps 716 mmHg 41%
    19:00 +30°C° 0 mm 2 mps 716 mmHg 42%
    20:00 +28°C° 0 mm 2 mps 716 mmHg 43%
    21:00 +27°C° 0 mm 2 mps 717 mmHg 44%
    22:00 +27°C° 0 mm 2 mps 717 mmHg 46%
    23:00 +26°C° 0 mm 2 mps 717 mmHg 48%

    Day after tomorrow, 19 October, Thursday

    Time Temperature Precipitation Wind Pressure Humidity
    00:00 +26°C° 0 mm 2 mps 716 mmHg 50%
    01:00 +25°C° 0 mm 3 mps 716 mmHg 50%
    02:00 +25°C° 0 mm 3 mps 715 mmHg 50%
    03:00 +24°C° 0 mm 3 mps 715 mmHg 50%
    04:00 +24°C° 0 mm 3 mps 715 mmHg 50%
    05:00 +24°C° 0 mm 3 mps 715 mmHg 51%
    06:00 +22°C° 0 mm 3 mps 715 mmHg 52%
    07:00 +25°C° 0 mm 4 mps 716 mmHg 48%
    08:00 +27°C° 0 mm 4 mps 717 mmHg 44%
    09:00 +30°C° 0 mm 5 mps 717 mmHg 40%
    10:00 +32°C° 0 mm 4 mps 717 mmHg 36%
    11:00 +34°C° 0 mm 4 mps 717 mmHg 32%
    12:00 +36°C° 0 mm 4 mps 717 mmHg 29%
    13:00 +37°C° 0 mm 3 mps 716 mmHg 27%
    14:00 +37°C° 0 mm 3 mps 715 mmHg 26%
    15:00 +38°C° 0 mm 2 mps 714 mmHg 24%
    16:00 +36°C° 0 mm 2 mps 714 mmHg 28%
    17:00 +34°C° 0 mm 1 mps 714 mmHg 32%
    18:00 +32°C° 0 mm 1 mps 714 mmHg 35%
    19:00 +31°C° 0 mm 1 mps 714 mmHg 36%
    20:00 +30°C° 0 mm 2 mps 715 mmHg 37%
    21:00 +29°C° 0 mm 2 mps 715 mmHg 37%
    22:00 +28°C° 0 mm 2 mps 715 mmHg 45%
    23:00 +27°C° 0 mm 3 mps 715 mmHg 52%

    20 October, Friday

    Time Temperature Precipitation Wind Pressure Humidity
    00:00 +27°C° 0 mm 3 mps 715 mmHg 60%
    01:00 +26°C° 0 mm 3 mps 715 mmHg 63%
    02:00 +25°C° 0 mm 2 mps 714 mmHg 66%
    03:00 +25°C° 0 mm 2 mps 714 mmHg 69%
    04:00 +24°C° 0 mm 2 mps 714 mmHg 69%
    05:00 +24°C° 0 mm 2 mps 715 mmHg 69%
    06:00 +24°C° 0 mm 3 mps 715 mmHg 69%
    07:00 +25°C° 0 mm 3 mps 716 mmHg 63%
    08:00 +27°C° 0 mm 3 mps 716 mmHg 58%
    09:00 +29°C° 0 mm 3 mps 717 mmHg 53%
    10:00 +30°C° 0 mm 3 mps 717 mmHg 50%
    11:00 +31°C° 0 mm 3 mps 717 mmHg 47%
    12:00 +31°C° 0 mm 3 mps 717 mmHg 44%
    13:00 +31°C° 0 mm 3 mps 716 mmHg 45%
    14:00 +31°C° 0 mm 3 mps 715 mmHg 47%
    15:00 +32°C° 0 mm 4 mps 715 mmHg 48%
    16:00 +30°C° 0 mm 4 mps 715 mmHg 53%
    17:00 +29°C° 0 mm 4 mps 715 mmHg 57%
    18:00 +28°C° 0 mm 3 mps 715 mmHg 62%
    19:00 +27°C° 0.1 mm 3 mps 715 mmHg 65%
    20:00 +26°C° 0.1 mm 4 mps 715 mmHg 68%
    21:00 +25°C° 0.1 mm 4 mps 716 mmHg 71%
    22:00 +25°C° 0 mm 4 mps 715 mmHg 72%
    23:00 +25°C° 0 mm 3 mps 715 mmHg 72%

    21 October, Saturday

    Time Temperature Precipitation Wind Pressure Humidity
    00:00 +24°C° 0 mm 3 mps 715 mmHg 73%
    01:00 +24°C° 0 mm 3 mps 714 mmHg 71%
    02:00 +24°C° 0 mm 3 mps 714 mmHg 70%
    03:00 +24°C° 0 mm 2 mps 713 mmHg 69%
    04:00 +24°C° 0 mm 2 mps 714 mmHg 67%
    05:00 +24°C° 0 mm 2 mps 714 mmHg 66%
    06:00 +24°C° 0 mm 1 mps 714 mmHg 64%
    07:00 +26°C° 0 mm 3 mps 715 mmHg 55%
    08:00 +29°C° 0 mm 4 mps 715 mmHg 47%
    09:00 +32°C° 0 mm 5 mps 716 mmHg 38%
    10:00 +33°C° 0 mm 5 mps 716 mmHg 35%
    11:00 +35°C° 0 mm 5 mps 715 mmHg 32%
    12:00 +36°C° 0 mm 5 mps 715 mmHg 29%
    13:00 +35°C° 0 mm 5 mps 715 mmHg 32%
    14:00 +35°C° 0 mm 4 mps 714 mmHg 34%
    15:00 +34°C° 0 mm 3 mps 714 mmHg 37%
    16:00 +32°C° 0.2 mm 4 mps 714 mmHg 45%
    17:00 +29°C° 0.2 mm 4 mps 715 mmHg 53%
    18:00 +27°C° 0.2 mm 5 mps 715 mmHg 61%
    19:00 +26°C° 0.6 mm 4 mps 715 mmHg 68%
    20:00 +25°C° 0.6 mm 4 mps 716 mmHg 75%
    21:00 +22°C° 0.6 mm 3 mps 716 mmHg 82%
    22:00 +22°C° 0.1 mm 3 mps 715 mmHg 83%
    23:00 +22°C° 0.1 mm 3 mps 715 mmHg 83%

    22 October, Sunday

    Time Temperature Precipitation Wind Pressure Humidity
    00:00 +23°C° 0.1 mm 2 mps 714 mmHg 84%
    01:00 +23°C° 0.2 mm 2 mps 714 mmHg 84%
    02:00 +23°C° 0.2 mm 1 mps 714 mmHg 84%
    03:00 +23°C° 0.2 mm 1 mps 714 mmHg 84%
    04:00 +23°C° 0.6 mm 1 mps 714 mmHg 84%
    05:00 +23°C° 0.6 mm 1 mps 714 mmHg 84%
    06:00 +23°C° 0.6 mm 1 mps 715 mmHg 84%
    07:00 +24°C° 0.2 mm 1 mps 715 mmHg 78%
    08:00 +26°C° 0.2 mm 2 mps 716 mmHg 73%
    09:00 +27°C° 0.2 mm 2 mps 716 mmHg 67%
    10:00 +28°C° 0.3 mm 3 mps 716 mmHg 64%
    11:00 +28°C° 0.3 mm 3 mps 716 mmHg 61%
    12:00 +29°C° 0.3 mm 4 mps 716 mmHg 58%
    13:00 +30°C° 0.2 mm 4 mps 715 mmHg 57%
    14:00 +30°C° 0.2 mm 5 mps 715 mmHg 55%
    15:00 +30°C° 0.2 mm 5 mps 714 mmHg 54%
    16:00 +29°C° 0.2 mm 4 mps 714 mmHg 59%
    17:00 +28°C° 0.2 mm 3 mps 714 mmHg 64%
    18:00 +27°C° 0.2 mm 2 mps 714 mmHg 69%
    19:00 +26°C° 0 mm 2 mps 714 mmHg 70%
    20:00 +25°C° 0 mm 2 mps 715 mmHg 71%
    21:00 +25°C° 0 mm 1 mps 715 mmHg 72%
    22:00 +24°C° 0.3 mm 1 mps 714 mmHg 74%
    23:00 +24°C° 0.3 mm 1 mps 714 mmHg 76%
    Show more